Flag for Germany Weather past 2 weeks in Öhringen, Baden-Württemberg, Germany

Now
63 °F

Overcast.


Feels Like: 63 °F
Forecast: 58 / 72 °F
Wind: 2 mph from Southwest

Location: Oehringen

Current Time: Aug 29, 2014 at 6:09:18 AM

Latest Report: Aug 29, 2014 at 6:00 AM


Visibility: 34 mi

Pressure: 30.02 "Hg

Humidity: 81%

Dew point: 57 °F

Location of ÖhringenLocation

Historic Weather in Öhringen — Graph

°F

Öhringen temperature yesterday

Maximum temperature yesterday: 75 °F (at 5:00 PM)
Minimum temperature yesterday: 50 °F (at 7:00 AM)
Average temperature yesterday: 63 °F

Past Weeks' High & Low Weather Summary

 TemperatureHumidityPressure
High75 °F (Aug 28, 5:00 PM)97% (Aug 26, 11:00 PM)30.16 "Hg (Aug 26, 11:00 PM)
Low48 °F (Aug 20, 7:00 AM)34% (Aug 22, 6:00 PM)29.67 "Hg (Aug 26, 8:00 AM)
Average59 °F74%29.98 "Hg
* Reported Aug 14 5:00 AM — Aug 29 5:00 AM, Öhringen, Weather by CustomWeather, © 2014

Note: Actual official high and low records may vary slightly from our data, if they occured in-between our weather recording intervals... More about our weather records

Advertising

Öhringen weather history for previous 24 hours

 ConditionsComfort  
Time TempWeatherWind HumidityBarometerVisibility
5:00 AM
Aug 29
62 °FPassing clouds.2 mph83%30.02 "Hg31 mi
4:00 AM61 °FPassing clouds.2 mph89%30.02 "Hg13 mi
3:00 AM63 °FPassing clouds.1 mph83%30.01 "Hg19 mi
2:00 AM62 °FOvercast.1 mph87%30.02 "Hg15 mi
1:00 AM61 °FOvercast.1 mph90%30.03 "Hg22 mi
12:00 AM63 °FOvercast.1 mph87%30.03 "Hg22 mi
11:00 PM
Aug 28
64 °FOvercast.1 mph85%30.03 "Hg22 mi
10:00 PM65 °FOvercast.2 mph82%30.02 "Hg25 mi
9:00 PM68 °FOvercast.2 mph76%30.01 "Hg31 mi
8:00 PM70 °FOvercast.1 mph67%30.00 "Hg22 mi
7:00 PM72 °FPassing clouds.2 mph59%30.00 "Hg40 mi
6:00 PM74 °FScattered clouds.2 mph51%30.00 "Hg43 mi
5:00 PM75 °FPassing clouds.1 mph49%30.00 "Hg40 mi
4:00 PM72 °FPassing clouds.2 mph55%30.01 "Hg43 mi
3:00 PM74 °FScattered clouds.3 mph56%30.02 "Hg34 mi
2:00 PM73 °FPartly sunny.2 mph57%30.03 "Hg31 mi
1:00 PM71 °FPartly sunny.2 mph60%30.04 "Hg43 mi
12:00 PM70 °FSunny.1 mph62%30.05 "Hg31 mi
11:00 AM66 °FSunny.1 mph67%30.06 "Hg19 mi
10:00 AM62 °FPassing clouds.2 mph79%30.07 "Hg11 mi
9:00 AM56 °FOvercast.1 mph88%30.09 "Hg7 mi
8:00 AM53 °FOvercast.1 mph92%30.09 "Hg7 mi
7:00 AM50 °FFog.2 mph95%30.08 "Hg4 mi
6:00 AM51 °FFog.2 mph95%30.07 "Hg4 mi
Weather by CustomWeather, © 2014

See weather overviewHow to use our weather pages